FW6605 Weather Reports


time (UTC)temp
C
wind
direction
speed
KPH
gust
KPH
rain 1hr
cm
rain 24hr
cm
rain mn
cm
humidity
%
barometer
mb
20260906211606 32 121 16.1 32.2 0.00 0.00 0.00 30 1018.9
20260906210111 33 360 6.4 25.7 0.00 0.00 0.00 31 1019.0
20260906204605 32 124 9.7 22.5 0.00 0.00 0.00 33 1019.1
20260906203113 32 120 12.9 27.4 0.00 0.00 0.00 33 1019.4
20260906201607 32 102 12.9 27.4 0.00 0.00 0.00 36 1019.5
20260906194626 31 148 12.9 20.9 0.00 0.00 0.00 38 1019.8
20260906193121 31 92 12.9 29.0 0.00 0.00 0.00 38 1020.0
20260906191608 31 360 14.5 29.0 0.00 0.00 0.00 38 1020.2
20260906190109 31 360 16.1 25.7 0.00 0.00 0.00 39 1020.5
20260906184612 31 128 4.8 24.1 0.00 0.00 0.00 38 1020.8
20260906183117 30 120 6.4 17.7 0.00 0.00 0.00 40 1021.0
20260906181636 30 360 6.4 20.9 0.00 0.00 0.00 39 1021.4
20260906180107 30 116 8.0 20.9 0.00 0.00 0.00 39 1021.6
20260906174607 28 40 1.6 16.1 0.00 0.00 0.00 43 1021.8
20260906173105 29 0 6.4 16.1 0.00 0.00 0.00 41 1022.1
20260906171611 28 360 4.8 20.9 0.00 0.00 0.00 43 1022.1
20260906170114 28 360 11.3 20.9 0.00 0.00 0.00 42 1022.2
20260906164608 28 360 3.2 17.7 0.00 0.00 0.00 43 1022.5
20260906163107 28 360 9.7 17.7 0.00 0.00 0.00 42 1022.6
20260906161602 27 360 0.0 14.5 0.00 0.00 0.00 44 1022.6
20260906160110 26 79 11.3 19.3 0.00 0.00 0.00 44 1022.7
20260906154605 26 105 11.3 19.3 0.00 0.00 0.00 48 1022.5
20260906153105 26 75 8.0 17.7 0.00 0.00 0.00 48 1022.5
20260906151606 25 360 6.4 17.7 0.00 0.00 0.00 51 1022.6
20260906150105 25 360 8.0 16.1 0.00 0.00 0.00 52 1022.4
20260906144614 24 101 4.8 11.3 0.00 0.00 0.00 57 1022.5
20260906143112 23 94 4.8 9.7 0.00 0.00 0.00 59 1022.5
20260906141601 21 360 1.6 8.0 0.00 0.00 0.00 62 1022.4
20260906140107 20 360 1.6 4.8 0.00 0.00 0.00 66 1022.4
20260906134605 18 360 3.2 8.0 0.00 0.00 0.00 67 1022.2
20260906133107 17 360 4.8 8.0 0.00 0.00 0.00 71 1022.0
20260906131559 16 360 0.0 4.8 0.00 0.00 0.00 73 1021.6
20260906130108 16 360 4.8 14.5 0.00 0.00 0.00 75 1021.4
20260906124601 15 360 8.0 12.9 0.00 0.00 0.00 77 1021.3
20260906123108 15 360 6.4 8.0 0.00 0.00 0.00 78 1021.4
20260906121605 15 360 4.8 8.0 0.00 0.00 0.00 78 1021.1
20260906120112 14 360 3.2 6.4 0.00 0.00 0.00 77 1021.1
20260906114601 15 360 4.8 9.7 0.00 0.00 0.00 76 1020.9
20260906113058 15 360 6.4 9.7 0.00 0.00 0.00 74 1021.0
20260906111605 16 360 6.4 9.7 0.00 0.00 0.00 78 1020.9
20260906110104 15 360 3.2 6.4 0.00 0.00 0.00 76 1021.1
20260906104607 16 360 3.2 8.0 0.00 0.00 0.00 73 1020.9
20260906103105 17 360 4.8 9.7 0.00 0.00 0.00 72 1021.0
20260906101607 17 360 8.0 12.9 0.00 0.00 0.00 72 1020.9
20260906100105 18 360 6.4 14.5 0.00 0.00 0.00 71 1021.0
20260906094614 17 360 8.0 12.9 0.00 0.00 0.00 72 1021.0
20260906093133 17 360 6.4 9.7 0.00 0.00 0.00 71 1020.9
20260906091612 18 360 8.0 14.5 0.00 0.00 0.00 71 1020.9
20260906090100 18 360 6.4 14.5 0.00 0.00 0.00 71 1021.0
20260906084605 17 360 4.8 8.0 0.00 0.00 0.00 71 1021.3
20260906083102 18 360 1.6 6.4 0.00 0.00 0.00 69 1021.3
20260906081609 18 360 8.0 14.5 0.00 0.00 0.00 69 1021.3
20260906080105 18 360 11.3 16.1 0.00 0.00 0.00 70 1020.9
20260906074558 18 360 12.9 17.7 0.00 0.00 0.00 69 1020.6
20260906073104 17 360 12.9 17.7 0.00 0.00 0.00 72 1020.7
20260906071607 17 360 3.2 9.7 0.00 0.00 0.00 70 1020.7
20260906070104 17 360 8.0 12.9 0.00 0.00 0.00 69 1020.7
20260906064556 18 360 6.4 12.9 0.00 0.00 0.00 66 1020.8
20260906063106 18 360 8.0 12.9 0.00 0.00 0.00 65 1020.9
20260906061606 20 360 6.4 9.7 0.00 0.00 0.00 63 1020.8
20260906060105 20 360 1.6 4.8 0.00 0.00 0.00 62 1021.0
20260906054611 20 0 0.0 9.7 0.00 0.00 0.00 60 1021.1
20260906053105 20 360 4.8 8.0 0.00 0.00 0.00 62 1021.0
20260906051619 20 360 6.4 9.7 0.00 0.00 0.00 60 1021.3
20260906050124 21 360 4.8 12.9 0.00 0.00 0.00 57 1021.0
20260906044607 21 360 6.4 12.9 0.00 0.00 0.00 56 1020.9
20260906043109 21 360 4.8 12.9 0.00 0.00 0.00 56 1020.8
20260906041604 21 360 4.8 9.7 0.00 0.00 0.00 55 1020.6
20260906040106 22 360 1.6 4.8 0.00 0.00 0.00 51 1020.8
20260906034608 23 360 3.2 6.4 0.00 0.00 0.00 50 1020.6
20260906033107 24 119 4.8 19.3 0.00 0.00 0.00 48 1020.6
20260906031606 24 360 8.0 16.1 0.00 0.00 0.00 49 1020.4
20260906024605 25 119 9.7 17.7 0.00 0.00 0.00 48 1019.7
20260906023104 26 126 4.8 20.9 0.00 0.00 0.00 42 1019.5
20260906021602 26 360 1.6 8.0 0.00 0.00 0.00 34 1019.3
20260906014649 26 0 0.0 0.0 0.00 0.00 0.00 33 1019.0
20260906013105 28 0 0.0 8.0 0.00 0.00 0.00 31 1018.7
20260906011606 29 0 1.6 8.0 0.00 0.00 0.00 29 1018.6
20260906010105 30 360 11.3 22.5 0.00 0.00 0.00 27 1018.6
20260906004612 31 360 12.9 20.9 0.00 0.00 0.00 26 1018.7
20260906003115 31 360 17.7 25.7 0.00 0.00 0.00 26 1018.8
20260906001605 31 360 14.5 19.3 0.00 0.00 0.00 27 1018.9
20260906000105 30 360 11.3 19.3 0.00 0.00 0.00 28 1019.0
20260905234612 31 360 16.1 24.1 0.00 0.00 0.00 27 1018.8
20260905233103 31 360 12.9 25.7 0.00 0.00 0.00 26 1018.7
20260905231608 31 299 17.7 27.4 0.00 0.00 0.00 26 1018.7
20260905230115 31 360 20.9 30.6 0.00 0.00 0.00 26 1018.7
20260905224614 32 344 27.4 35.4 0.00 0.00 0.00 26 1018.6
20260905223112 31 360 20.9 32.2 0.00 0.00 0.00 26 1018.7
20260905221617 32 24 22.5 30.6 0.00 0.00 0.00 26 1018.7
20260905220108 32 96 14.5 22.5 0.00 0.00 0.00 25 1018.8
20260905214610 32 34 17.7 30.6 0.00 0.00 0.00 25 1018.8
20260905213106 32 94 19.3 33.8 0.00 0.00 0.00 25 1018.7